Regional Weather Roundup
Issued by NWS Bismarck, ND

Home | Current Version | Previous Version | Text Only | Print | Product List | Glossary On
Versions: 1 2 3 4 5 6 7 8 9 10 11 12 13 14 15 16 17 18 19 20 21 22 23 24 25 26 27 28 29 30 31 32 33 34 35 36 37 38 39 40 41 42 43 44 45 46 47 48 49 50
000
ASUS43 KBIS 310710
RWRBIS

NWR BROADCAST TEXT
NATIONAL WEATHER SERVICE BISMARCK ND
200 AM CDT FRI JUL 31 2015

NOTE: "FAIR" INDICATES FEW OR NO CLOUDS BELOW 12,000 FEET WITH NO
SIGNIFICANT WEATHER AND/OR OBSTRUCTIONS TO VISIBILITY.


CITY           SKY/WX    TMP DP  RH WIND       PRES   REMARKS
WILLISTON      CLEAR     56  50  80 CALM      30.17R
MINOT          CLEAR     57  49  74 SW6       30.12S
MINOT AFB      CLEAR     54  52  92 W10       30.11S
BISMARCK       CLEAR     58  52  80 CALM      30.17R
DICKINSON      CLEAR     54  46  74 S6        30.20S
GARRISON         N/A     57  50  77 CALM      30.16R
HETTINGER ARPT CLEAR     49  45  86 CALM      30.23R
JAMESTOWN      CLEAR     58  51  78 NW3       30.11S
BEACH          FAIR      50  50 100 S3        30.22S
CROSBY         FAIR      54  54 100 SW9       30.15S
HARVEY         FAIR      57  50  77 W8        30.12S
HAZEN          FAIR      50  48  93 CALM      30.18S
LINTON         FAIR      52  50  93 CALM      30.18R
MANDAN         FAIR      57  50  77 W5        30.19R
OAKES            N/A     55  55 100 W6        30.12R
STANLEY        FAIR      54  52  94 SW6       30.18R
$$

CITY           SKY/WX    TMP DP  RH WIND       PRES   REMARKS
GRAND FORKS    CLEAR     56  51  84 W7        30.02R
GRAND FORKS AF CLEAR     59  51  76 NW7       30.03S
DEVILS LAKE    CLEAR     61  48  63 W9        30.07S
FARGO          CLEAR     59  53  80 W7        30.05S
CAVALIER       FAIR      59  50  72 W8        30.01S
GRAFTON        FAIR      61  54  77 W10       30.02S
GWINNER        FAIR      61  54  77 W9        30.10S
LANGDON        FAIR      54  50  87 W7        30.06S
ROLLA          FAIR      57  50  77 W9        30.10S
WALHALLA       FAIR      63  50  63 MISG      30.01S
$$

CITY           SKY/WX    TMP DP  RH WIND       PRES   REMARKS
ABERDEEN       CLEAR     56  53  90 SW3       30.13S
MOBRIDGE       CLEAR     59  54  83 CALM      30.15R
BUFFALO          N/A     65  48  54 CALM      30.18R
RAPID CITY     CLEAR     60  51  72 N8        30.22S
GLASGOW        CLEAR     62  50  64 NE9       30.16R
SIDNEY         CLEAR     57  48  72 W5        30.16S
WOLF POINT     CLEAR     59  49  69 E3        30.16R
GLENDIVE       CLEAR     57  48  72 W6        30.19F
MILES CITY     CLEAR     67  46  47 CALM      30.20R
BAKER          CLEAR     57  44  62 SE3       30.23S
$$

CITY           SKY/WX    TMP DP  RH WIND       PRES   REMARKS
BILLINGS       CLEAR     69  41  36 N8        30.24S
GREAT FALLS    CLEAR     59  43  55 SW7       30.18R
REGINA         CLEAR     54  52  94 W5        30.14R
ESTEVAN        CLEAR     52  50  93 SW5       30.14R
$$



USA.gov is the U.S. government's official web portal to all federal, state and local government web resources and services.